• In Netherlands
  • List of Countries
  • For 7 days
  • Water Temperature
  • Satellite Maps
  • Weather Map
  • Weather Widgets
  • user-avatar
    Login

    Hourly Weather Borovec

    Today, 17 July, Tuesday

    Time Temperature Precipitation Wind Pressure Humidity
    00:00 +20°C° 0 mm 1 mps 708 mmHg 69%
    01:00 +19°C° 0 mm 1 mps 708 mmHg 71%
    02:00 +19°C° 0 mm 1 mps 707 mmHg 75%
    03:00 +19°C° 0.1 mm 1 mps 707 mmHg 76%
    04:00 +18°C° 0.1 mm 1 mps 707 mmHg 78%
    05:00 +18°C° 0.1 mm 1 mps 706 mmHg 79%
    06:00 +20°C° 0 mm 1 mps 707 mmHg 73%
    07:00 +23°C° 0 mm 1 mps 707 mmHg 67%
    08:00 +25°C° 0 mm 1 mps 707 mmHg 60%
    09:00 +26°C° 0 mm 2 mps 707 mmHg 54%
    10:00 +28°C° 0 mm 2 mps 707 mmHg 48%
    11:00 +29°C° 0 mm 3 mps 707 mmHg 42%
    12:00 +29°C° 0.1 mm 3 mps 707 mmHg 44%
    13:00 +29°C° 0.1 mm 3 mps 706 mmHg 46%
    14:00 +28°C° 0.1 mm 3 mps 706 mmHg 48%
    15:00 +28°C° 0.1 mm 2 mps 706 mmHg 51%
    16:00 +27°C° 0.1 mm 2 mps 706 mmHg 54%
    17:00 +26°C° 0.1 mm 2 mps 705 mmHg 57%
    18:00 +24°C° 0.8 mm 2 mps 705 mmHg 67%
    19:00 +23°C° 0.8 mm 2 mps 705 mmHg 76%
    20:00 +21°C° 0.8 mm 1 mps 705 mmHg 86%
    21:00 +20°C° 0.1 mm 1 mps 705 mmHg 88%
    22:00 +19°C° 0.1 mm 1 mps 705 mmHg 90%
    23:00 +18°C° 0.1 mm 1 mps 706 mmHg 92%

    Tomorrow, 18 July, Wednesday

    Time Temperature Precipitation Wind Pressure Humidity
    00:00 +18°C° 0 mm 1 mps 706 mmHg 93%
    01:00 +16°C° 0 mm 2 mps 706 mmHg 94%
    02:00 +16°C° 0 mm 2 mps 706 mmHg 94%
    03:00 +16°C° 0 mm 2 mps 706 mmHg 94%
    04:00 +16°C° 0 mm 2 mps 706 mmHg 94%
    05:00 +15°C° 0 mm 2 mps 706 mmHg 94%
    06:00 +17°C° 0 mm 2 mps 706 mmHg 88%
    07:00 +18°C° 0 mm 3 mps 706 mmHg 82%
    08:00 +20°C° 0 mm 3 mps 707 mmHg 76%
    09:00 +21°C° 0 mm 4 mps 707 mmHg 69%
    10:00 +22°C° 0 mm 5 mps 707 mmHg 62%
    11:00 +25°C° 0 mm 5 mps 707 mmHg 55%
    12:00 +24°C° 0 mm 6 mps 707 mmHg 53%
    13:00 +26°C° 0 mm 6 mps 707 mmHg 52%
    14:00 +26°C° 0 mm 6 mps 706 mmHg 51%
    15:00 +24°C° 0.1 mm 6 mps 706 mmHg 52%
    16:00 +24°C° 0.1 mm 6 mps 706 mmHg 54%
    17:00 +23°C° 0.1 mm 6 mps 706 mmHg 56%
    18:00 +22°C° 0 mm 5 mps 706 mmHg 62%
    19:00 +21°C° 0 mm 4 mps 706 mmHg 67%
    20:00 +19°C° 0 mm 4 mps 706 mmHg 72%
    21:00 +18°C° 0 mm 3 mps 707 mmHg 75%
    22:00 +18°C° 0 mm 3 mps 707 mmHg 78%
    23:00 +17°C° 0 mm 3 mps 707 mmHg 80%

    Day after tomorrow, 19 July, Thursday

    Time Temperature Precipitation Wind Pressure Humidity
    00:00 +16°C° 0 mm 3 mps 707 mmHg 82%
    01:00 +16°C° 0 mm 2 mps 706 mmHg 84%
    02:00 +15°C° 0 mm 2 mps 706 mmHg 85%
    03:00 +15°C° 0 mm 2 mps 706 mmHg 85%
    04:00 +16°C° 0 mm 2 mps 706 mmHg 85%
    05:00 +16°C° 0 mm 2 mps 706 mmHg 84%
    06:00 +16°C° 0.1 mm 2 mps 706 mmHg 83%
    07:00 +17°C° 0.1 mm 3 mps 706 mmHg 81%
    08:00 +18°C° 0.1 mm 3 mps 706 mmHg 80%
    09:00 +19°C° 0.1 mm 3 mps 706 mmHg 76%
    10:00 +20°C° 0.1 mm 3 mps 706 mmHg 73%
    11:00 +21°C° 0.1 mm 4 mps 707 mmHg 70%
    12:00 +22°C° 0 mm 4 mps 707 mmHg 67%
    13:00 +22°C° 0 mm 4 mps 707 mmHg 65%
    14:00 +23°C° 0 mm 4 mps 707 mmHg 63%
    15:00 +23°C° 0 mm 4 mps 707 mmHg 63%
    16:00 +23°C° 0 mm 4 mps 707 mmHg 63%
    17:00 +23°C° 0 mm 4 mps 707 mmHg 63%
    18:00 +22°C° 0 mm 4 mps 707 mmHg 69%
    19:00 +20°C° 0 mm 3 mps 707 mmHg 76%
    20:00 +18°C° 0 mm 2 mps 707 mmHg 82%
    21:00 +18°C° 0 mm 2 mps 707 mmHg 85%
    22:00 +17°C° 0 mm 2 mps 707 mmHg 88%
    23:00 +17°C° 0 mm 2 mps 708 mmHg 90%

    20 July, Friday

    Time Temperature Precipitation Wind Pressure Humidity
    00:00 +17°C° 0 mm 2 mps 707 mmHg 90%
    01:00 +17°C° 0 mm 2 mps 707 mmHg 90%
    02:00 +17°C° 0 mm 2 mps 707 mmHg 90%
    03:00 +17°C° 0 mm 2 mps 707 mmHg 91%
    04:00 +17°C° 0 mm 2 mps 707 mmHg 91%
    05:00 +17°C° 0 mm 2 mps 707 mmHg 92%
    06:00 +18°C° 0 mm 2 mps 708 mmHg 88%
    07:00 +19°C° 0 mm 2 mps 708 mmHg 84%
    08:00 +20°C° 0 mm 3 mps 708 mmHg 80%
    09:00 +21°C° 0 mm 3 mps 708 mmHg 76%
    10:00 +22°C° 0 mm 3 mps 708 mmHg 72%
    11:00 +22°C° 0 mm 3 mps 709 mmHg 68%
    12:00 +24°C° 0 mm 3 mps 708 mmHg 65%
    13:00 +25°C° 0 mm 3 mps 708 mmHg 62%
    14:00 +26°C° 0 mm 3 mps 708 mmHg 60%
    15:00 +26°C° 0 mm 3 mps 708 mmHg 59%
    16:00 +26°C° 0 mm 3 mps 708 mmHg 59%
    17:00 +26°C° 0 mm 3 mps 708 mmHg 58%
    18:00 +25°C° 0 mm 3 mps 708 mmHg 66%
    19:00 +23°C° 0 mm 2 mps 708 mmHg 73%
    20:00 +20°C° 0 mm 2 mps 708 mmHg 80%
    21:00 +19°C° 0 mm 2 mps 708 mmHg 84%
    22:00 +18°C° 0 mm 2 mps 708 mmHg 87%
    23:00 +18°C° 0 mm 2 mps 709 mmHg 91%

    21 July, Saturday

    Time Temperature Precipitation Wind Pressure Humidity
    00:00 +17°C° 0 mm 2 mps 709 mmHg 91%
    01:00 +17°C° 0 mm 2 mps 708 mmHg 92%
    02:00 +17°C° 0 mm 2 mps 708 mmHg 93%
    03:00 +16°C° 0 mm 1 mps 708 mmHg 92%
    04:00 +16°C° 0 mm 1 mps 708 mmHg 92%
    05:00 +16°C° 0 mm 1 mps 708 mmHg 92%
    06:00 +18°C° 0 mm 2 mps 709 mmHg 82%
    07:00 +20°C° 0 mm 2 mps 709 mmHg 72%
    08:00 +23°C° 0 mm 2 mps 709 mmHg 62%
    09:00 +24°C° 0 mm 2 mps 709 mmHg 55%
    10:00 +26°C° 0 mm 3 mps 709 mmHg 48%
    11:00 +28°C° 0 mm 3 mps 709 mmHg 40%
    12:00 +29°C° 0 mm 3 mps 709 mmHg 38%
    13:00 +30°C° 0 mm 3 mps 709 mmHg 35%
    14:00 +31°C° 0 mm 3 mps 709 mmHg 33%
    15:00 +30°C° 0 mm 3 mps 709 mmHg 33%
    16:00 +30°C° 0 mm 3 mps 708 mmHg 33%
    17:00 +30°C° 0 mm 3 mps 708 mmHg 34%
    18:00 +27°C° 0 mm 3 mps 708 mmHg 41%
    19:00 +25°C° 0 mm 2 mps 708 mmHg 48%
    20:00 +22°C° 0 mm 1 mps 708 mmHg 54%
    21:00 +21°C° 0 mm 1 mps 708 mmHg 55%
    22:00 +20°C° 0 mm 1 mps 708 mmHg 56%
    23:00 +19°C° 0 mm 1 mps 708 mmHg 57%

    22 July, Sunday

    Time Temperature Precipitation Wind Pressure Humidity
    00:00 +19°C° 0 mm 1 mps 707 mmHg 56%
    01:00 +19°C° 0 mm 1 mps 707 mmHg 56%
    02:00 +18°C° 0 mm 1 mps 707 mmHg 56%
    03:00 +18°C° 0 mm 1 mps 707 mmHg 56%
    04:00 +18°C° 0 mm 1 mps 707 mmHg 56%
    05:00 +18°C° 0 mm 1 mps 707 mmHg 57%
    06:00 +20°C° 0 mm 1 mps 707 mmHg 53%
    07:00 +23°C° 0 mm 1 mps 707 mmHg 50%
    08:00 +25°C° 0 mm 1 mps 707 mmHg 47%
    09:00 +27°C° 0 mm 1 mps 707 mmHg 44%
    10:00 +29°C° 0 mm 1 mps 707 mmHg 41%
    11:00 +30°C° 0 mm 2 mps 707 mmHg 38%
    12:00 +31°C° 0 mm 2 mps 707 mmHg 37%
    13:00 +31°C° 0 mm 2 mps 706 mmHg 37%
    14:00 +31°C° 0 mm 2 mps 706 mmHg 36%
    15:00 +31°C° 0 mm 2 mps 706 mmHg 39%
    16:00 +30°C° 0 mm 2 mps 705 mmHg 42%
    17:00 +29°C° 0 mm 2 mps 705 mmHg 46%
    18:00 +27°C° 1.2 mm 2 mps 705 mmHg 54%
    19:00 +25°C° 1.2 mm 1 mps 705 mmHg 63%
    20:00 +23°C° 1.2 mm 1 mps 705 mmHg 72%
    21:00 +22°C° 2.2 mm 1 mps 705 mmHg 78%
    22:00 +21°C° 2.2 mm 1 mps 705 mmHg 84%
    23:00 +19°C° 2.2 mm 2 mps 706 mmHg 90%
    Show more